Vorticity
4 4 6 5 4 4 4 3 2 3 3 6 6 5 6 8 8 10 10 9 7 9 9 9 8 8 8 7 8 8 4 7
5 5 4 5 4 4 3 2 2 5 8 9 10 8 9 8 8 9 10 11 7 4 5 4 5 6 6 6 7 8 7 5
5 5 5 5 5 5 7 8 9 8 8 8 8 9 7 8 7 7 5 2 3 3 5 6 8 7 6 5 8 7 5 7
6 6 5 6 7 9 11 13 13 11 9 10 7 6 10 10 11 12 11 14 15 12 12 16 16 13 15 11 6 4 7 8
7 8 8 10 13 13 10 8 9 13 15 14 17 17 14 12 13 16 19 17 18 19 22 22 23 25 29 25 16 10 6 5
9 10 12 10 5 6 13 14 12 10 9 10 11 17 24 26 25 26 30 26 22 22 20 16 15 10 9 10 22 36 31 16
8 7 7 9 13 13 11 8 8 11 17 21 21 19 15 15 18 25 23 16 17 21 20 18 7 8 8 9 9 11 14 24
7 9 10 12 14 10 10 15 18 16 15 14 15 15 16 16 18 16 13 15 14 13 14 15 14 16 15 11 11 15 7 24
12 10 18 11 6 13 10 13 15 18 17 20 23 25 23 19 18 18 18 25 13 10 13 3 7 11 13 13 8 15 25 15
15 17 4 10 13 17 24 23 22 22 24 27 24 30 24 12 13 17 8 14 22 22 25 35 32 34 49 37 20 8 15 16
11 5 10 10 15 24 23 4 8 18 22 13 14 11 8 16 19 11 30 11 17 20 19 14 28 25 17 21 25 32 27 14
2 6 11 11 23 24 3 3 14 8 13 15 -2 8 12 20 27 34 8 18 16 18 15 15 13 9 21 21 31 41 33 22
1 11 11 21 16 15 8 14 7 18 16 10 9 19 10 24 14 18 14 8 10 13 13 11 16 23 27 19 14 19 26 28
9 11 21 19 20 8 9 13 10 17 4 26 27 35 31 19 29 25 26 20 14 12 11 10 12 10 8 8 16 17 12 11
9 18 17 10 16 15 13 12 12 13 27 17 22 -1 2 3 12 24 29 23 27 25 23 23 20 14 20 23 9 8 15 18
17 20 11 16 12 16 11 11 10 19 -41 -6 -1 2 3 5 9 8 6 7 9 20 24 27 23 19 22 22 17 15 14 5
23 10 11 17 7 16 12 10 13 22 63 6 2 5 5 4 4 5 2 1 3 4 5 3 3 4 18 30 24 35 21 24
13 9 15 14 6 15 7 10 10 25 4 1 2 3 4 3 3 3 2 3 4 3 3 3 4 3 5 6 -0 9 20 24
6 13 14 13 14 15 6 16 8 19 6 2 3 2 4 2 3 5 5 5 5 4 3 3 3 2 3 4 5 5 5 4
Height
5761 5759 5755 5752 5748 5744 5740 5736 5732 5728 5724 5720 5717 5715 5713 5711 5709 5709 5709 5708 5708 5706 5705 5705 5705 5705 5705 5704 5705 5708 5709 5712
5751 5747 5744 5740 5736 5732 5728 5723 5719 5714 5711 5707 5703 5699 5696 5692 5690 5689 5688 5689 5689 5689 5689 5689 5689 5689 5689 5689 5689 5690 5693 5695
5740 5736 5732 5727 5723 5718 5713 5708 5703 5699 5695 5691 5687 5683 5679 5677 5673 5670 5668 5666 5667 5667 5668 5670 5669 5670 5671 5672 5672 5673 5675 5678
5727 5723 5719 5714 5709 5704 5698 5693 5688 5683 5678 5673 5668 5663 5660 5656 5653 5650 5647 5646 5644 5642 5642 5643 5646 5647 5651 5652 5653 5654 5657 5661
5715 5710 5705 5700 5694 5690 5685 5679 5673 5666 5660 5655 5650 5645 5639 5633 5629 5625 5622 5619 5619 5619 5619 5619 5619 5620 5625 5628 5631 5633 5637 5643
5702 5697 5693 5689 5684 5678 5670 5662 5655 5648 5642 5636 5631 5625 5619 5613 5609 5606 5602 5600 5597 5598 5599 5601 5601 5601 5603 5606 5608 5611 5615 5619
5690 5686 5681 5676 5670 5663 5655 5647 5640 5633 5627 5619 5613 5608 5601 5597 5593 5590 5587 5585 5583 5582 5583 5584 5585 5585 5585 5586 5590 5593 5596 5599
5679 5675 5669 5663 5656 5649 5641 5633 5625 5619 5612 5604 5598 5592 5588 5584 5580 5577 5575 5572 5571 5570 5569 5568 5568 5569 5570 5569 5572 5576 5579 5583
5669 5664 5657 5651 5644 5637 5629 5621 5614 5606 5599 5592 5585 5579 5575 5572 5569 5567 5565 5563 5560 5557 5555 5554 5553 5552 5554 5555 5556 5559 5562 5567
5658 5653 5647 5641 5634 5626 5618 5611 5604 5596 5589 5581 5574 5570 5567 5564 5560 5558 5555 5552 5549 5545 5542 5541 5539 5537 5537 5539 5542 5545 5548 5551
5648 5643 5636 5630 5623 5616 5610 5604 5597 5590 5583 5576 5570 5565 5562 5557 5552 5549 5547 5545 5542 5538 5534 5532 5530 5529 5528 5528 5528 5530 5535 5538
5638 5632 5626 5619 5613 5608 5604 5598 5591 5584 5578 5572 5567 5562 5557 5552 5546 5543 5542 5539 5536 5533 5531 5528 5526 5524 5523 5521 5520 5520 5524 5528
5629 5622 5616 5610 5605 5601 5598 5592 5586 5580 5575 5570 5566 5561 5555 5549 5543 5540 5538 5536 5534 5531 5528 5527 5525 5523 5521 5519 5518 5517 5519 5522
5619 5613 5607 5603 5599 5596 5592 5587 5581 5577 5574 5569 5564 5560 5555 5550 5544 5540 5536 5534 5532 5530 5528 5526 5524 5522 5521 5519 5518 5517 5518 5519
5609 5604 5600 5596 5593 5590 5586 5583 5579 5575 5571 5570 5563 5559 5555 5551 5546 5542 5538 5535 5532 5530 5528 5526 5523 5521 5520 5518 5518 5518 5517 5518
5600 5596 5593 5590 5587 5584 5581 5578 5576 5573 5570 5567 5564 5561 5559 5556 5552 5547 5543 5538 5536 5533 5529 5527 5525 5523 5521 5519 5518 5517 5517 5518
5592 5589 5586 5584 5581 5578 5576 5575 5573 5571 5569 5564 5565 5563 5562 5559 5556 5551 5548 5544 5541 5538 5535 5533 5529 5527 5525 5522 5520 5518 5517 5516
5584 5581 5580 5577 5575 5573 5571 5570 5569 5567 5566 5565 5564 5564 5563 5561 5558 5554 5550 5547 5545 5542 5539 5536 5534 5531 5530 5527 5524 5522 5519 5517
5577 5575 5573 5570 5568 5567 5567 5566 5565 5564 5564 5563 5565 5563 5562 5561 5558 5555 5552 5549 5547 5544 5541 5539 5536 5534 5532 5530 5528 5526 5525 5523